Location: Moscow
(55.7500°N, 37.5830°E)
Time: 11:13:59
(UTC+03:00)

Vanguard 3 - Pass Details

Date: 06 December 2021
Orbit: 508 x 3260 km, 33.3° (Epoch: 19 January)

Event Time Altitude Azimuth Distance (km) Brightness Sun altitude
Rises 02:43:02 0° 208° (SSW) 6,832 - -47.6°
Reaches altitude 10° 02:48:49 10° 196° (SSW) 6,048 - -47.0°
Exits shadow 02:57:58 22° 169° (S) 5,198 11.0 -45.9°
Maximum altitude 03:02:20 24° 152° (SSE) 5,042 11.0 -45.4°
Drops below altitude 10° 03:15:04 10° 108° (ESE) 5,715 11.8 -43.8°
Sets 03:20:14 0° 96° (E) 6,397 12.3 -43.2°
